This is the latest recevied weather packets stored in our database for station/object 9W2RUT-16. If no packets are shown the sender has not sent any weather packets the latest 10 day(s).
| Time | Temp. | Humidity | Pressure | Rain* | Wind** | Luminosity | Snow |
|---|---|---|---|---|---|---|---|
| 1788145233 | 95° F | 37% | 762.6 mmHg | - | - | - | - |
| 1788144333 | 95° F | 38% | 762.7 mmHg | - | - | - | - |
| 1788143432 | 95° F | 38% | 762.8 mmHg | - | - | - | - |
| 1788142532 | 95° F | 38% | 762.8 mmHg | - | - | - | - |
| 1788141632 | 95° F | 38% | 762.8 mmHg | - | - | - | - |
| 1788140731 | 95° F | 38% | 762.8 mmHg | - | - | - | - |
| 1788139831 | 95° F | 39% | 762.8 mmHg | - | - | - | - |
| 1788138931 | 94° F | 40% | 762.7 mmHg | - | - | - | - |
| 1788138030 | 95° F | 40% | 762.5 mmHg | - | - | - | - |
| 1788137129 | 95° F | 41% | 762.4 mmHg | - | - | - | - |
| 1788136229 | 95° F | 41% | 762.3 mmHg | - | - | - | - |
| 1788135329 | 95° F | 41% | 762 mmHg | - | - | - | - |
| 1788134428 | 95° F | 42% | 761.8 mmHg | - | - | - | - |
| 1788133527 | 95° F | 42% | 761.8 mmHg | - | - | - | - |
| 1788132627 | 95° F | 41% | 761.8 mmHg | - | - | - | - |
| 1788131878 | 95° F | 42% | 761.7 mmHg | - | - | - | - |
| 1788131726 | 95° F | 42% | 761.7 mmHg | - | - | - | - |
| 1788130825 | 95° F | 41% | 761.7 mmHg | - | - | - | - |
| 1788129925 | 95° F | 40% | 761.8 mmHg | - | - | - | - |
| 1788129024 | 95° F | 41% | 761.6 mmHg | - | - | - | - |
| 1788128124 | 96° F | 40% | 761.6 mmHg | - | - | - | - |
| 1788127224 | 100° F | 36% | 761.8 mmHg | - | - | - | - |
| 1788126324 | 100° F | 35% | 761.7 mmHg | - | - | - | - |
| 1788125424 | 99° F | 37% | 761.5 mmHg | - | - | - | - |
| 1788124524 | 101° F | 35% | 761.3 mmHg | - | - | - | - |
* Rain since midnight (hover to see other rain measurements)
** Current wind speed in m/s (hover to see current wind gust speed)